When you browse on this site, cookies collect data to enhance your experience and personalize the content and advertising you see.
Visit our Privacy Policy to learn more. By continuing to use the site, you agree to this use of cookies and data.
  • en France
  • Liste des pays
  • À 7 jours
  • Température de l'eau
  • Carte satellitaire
  • Carte météo
  • Widgets météo
  • user-avatar
    Se connecter

    Météo par heure à Toulouse

    Ce jour, 25 Mai, Samedi

    Heure Température Précipitation Vent Pression Humidité
    00:00 +13°C° 1 mm 5 m/s 750 mmHg 94%
    01:00 +12°C° 0.5 mm 5 m/s 750 mmHg 95%
    02:00 +12°C° 0.5 mm 5 m/s 750 mmHg 95%
    03:00 +12°C° 0.5 mm 5 m/s 750 mmHg 95%
    04:00 +12°C° 0.4 mm 5 m/s 750 mmHg 95%
    05:00 +13°C° 0.4 mm 5 m/s 750 mmHg 95%
    06:00 +13°C° 0.4 mm 5 m/s 750 mmHg 95%
    07:00 +13°C° 0.2 mm 5 m/s 750 mmHg 93%
    08:00 +14°C° 0.2 mm 5 m/s 750 mmHg 92%
    09:00 +14°C° 0.2 mm 5 m/s 751 mmHg 91%
    10:00 +15°C° 0.1 mm 5 m/s 750 mmHg 86%
    11:00 +16°C° 0.1 mm 5 m/s 750 mmHg 81%
    12:00 +19°C° 0.1 mm 5 m/s 750 mmHg 76%
    13:00 +19°C° 0.4 mm 5 m/s 750 mmHg 73%
    14:00 +20°C° 0.4 mm 5 m/s 750 mmHg 70%
    15:00 +21°C° 0.4 mm 5 m/s 749 mmHg 67%
    16:00 +20°C° 0.6 mm 5 m/s 750 mmHg 71%
    17:00 +19°C° 0.6 mm 5 m/s 750 mmHg 75%
    18:00 +17°C° 0.6 mm 5 m/s 750 mmHg 79%
    19:00 +16°C° 0.3 mm 5 m/s 750 mmHg 82%
    20:00 +15°C° 0.3 mm 5 m/s 751 mmHg 85%
    21:00 +14°C° 0.3 mm 6 m/s 751 mmHg 88%
    22:00 +14°C° 0.1 mm 6 m/s 752 mmHg 89%
    23:00 +13°C° 0.1 mm 6 m/s 752 mmHg 91%

    Demain, 26 Mai, Dimanche

    Heure Température Précipitation Vent Pression Humidité
    00:00 +11°C° 0.1 mm 6 m/s 752 mmHg 92%
    01:00 +11°C° 0.1 mm 6 m/s 751 mmHg 92%
    02:00 +11°C° 0.1 mm 6 m/s 751 mmHg 93%
    03:00 +11°C° 0.1 mm 6 m/s 751 mmHg 93%
    04:00 +12°C° 0.2 mm 5 m/s 751 mmHg 93%
    05:00 +12°C° 0.2 mm 5 m/s 751 mmHg 93%
    06:00 +12°C° 0.2 mm 5 m/s 751 mmHg 93%
    07:00 +12°C° 0.3 mm 5 m/s 751 mmHg 93%
    08:00 +12°C° 0.3 mm 5 m/s 751 mmHg 93%
    09:00 +12°C° 0.3 mm 5 m/s 751 mmHg 93%
    10:00 +13°C° 0.2 mm 4 m/s 751 mmHg 91%
    11:00 +14°C° 0.2 mm 4 m/s 751 mmHg 89%
    12:00 +16°C° 0.2 mm 3 m/s 750 mmHg 86%
    13:00 +17°C° 0.3 mm 3 m/s 750 mmHg 82%
    14:00 +18°C° 0.3 mm 4 m/s 750 mmHg 78%
    15:00 +20°C° 0.3 mm 4 m/s 750 mmHg 74%
    16:00 +19°C° 0.2 mm 4 m/s 749 mmHg 77%
    17:00 +19°C° 0.2 mm 4 m/s 749 mmHg 80%
    18:00 +18°C° 0.2 mm 4 m/s 749 mmHg 83%
    19:00 +18°C° 0.5 mm 4 m/s 750 mmHg 86%
    20:00 +17°C° 0.5 mm 4 m/s 750 mmHg 89%
    21:00 +15°C° 0.5 mm 4 m/s 750 mmHg 92%
    22:00 +15°C° 0.2 mm 5 m/s 750 mmHg 92%
    23:00 +14°C° 0.2 mm 5 m/s 750 mmHg 93%

    Après-demain, 27 Mai, Lundi

    Heure Température Précipitation Vent Pression Humidité
    00:00 +14°C° 0.2 mm 6 m/s 750 mmHg 93%
    01:00 +13°C° 0.1 mm 5 m/s 750 mmHg 94%
    02:00 +13°C° 0.1 mm 5 m/s 749 mmHg 94%
    03:00 +13°C° 0.1 mm 4 m/s 749 mmHg 94%
    04:00 +13°C° 0.1 mm 4 m/s 749 mmHg 94%
    05:00 +13°C° 0.1 mm 4 m/s 749 mmHg 94%
    06:00 +13°C° 0.1 mm 3 m/s 749 mmHg 94%
    07:00 +13°C° 0 mm 3 m/s 749 mmHg 93%
    08:00 +13°C° 0 mm 4 m/s 749 mmHg 93%
    09:00 +14°C° 0 mm 4 m/s 749 mmHg 92%
    10:00 +14°C° 0.1 mm 4 m/s 748 mmHg 89%
    11:00 +15°C° 0.1 mm 4 m/s 748 mmHg 85%
    12:00 +17°C° 0.1 mm 4 m/s 748 mmHg 81%
    13:00 +18°C° 0.1 mm 4 m/s 748 mmHg 79%
    14:00 +18°C° 0.1 mm 4 m/s 747 mmHg 77%
    15:00 +19°C° 0.1 mm 4 m/s 747 mmHg 75%
    16:00 +18°C° 0.1 mm 4 m/s 747 mmHg 78%
    17:00 +18°C° 0.1 mm 4 m/s 747 mmHg 81%
    18:00 +17°C° 0.1 mm 4 m/s 747 mmHg 83%
    19:00 +17°C° 0.1 mm 4 m/s 748 mmHg 85%
    20:00 +15°C° 0.1 mm 4 m/s 748 mmHg 87%
    21:00 +15°C° 0.1 mm 5 m/s 749 mmHg 89%
    22:00 +15°C° 0.2 mm 5 m/s 749 mmHg 90%
    23:00 +14°C° 0.2 mm 5 m/s 748 mmHg 92%

    28 Mai, Mardi

    Heure Température Précipitation Vent Pression Humidité
    00:00 +14°C° 0.2 mm 5 m/s 748 mmHg 93%
    01:00 +13°C° 0.1 mm 5 m/s 748 mmHg 93%
    02:00 +13°C° 0.1 mm 5 m/s 748 mmHg 93%
    03:00 +12°C° 0.1 mm 5 m/s 747 mmHg 93%
    04:00 +11°C° 0.1 mm 6 m/s 748 mmHg 92%
    05:00 +11°C° 0.1 mm 6 m/s 748 mmHg 92%
    06:00 +11°C° 0.1 mm 7 m/s 748 mmHg 92%
    07:00 +13°C° 0.1 mm 6 m/s 748 mmHg 89%
    08:00 +13°C° 0.1 mm 6 m/s 749 mmHg 87%
    09:00 +14°C° 0.1 mm 6 m/s 749 mmHg 85%
    10:00 +14°C° 0.5 mm 6 m/s 749 mmHg 81%
    11:00 +15°C° 0.5 mm 6 m/s 749 mmHg 77%
    12:00 +16°C° 0.5 mm 6 m/s 748 mmHg 73%
    13:00 +16°C° 0.3 mm 6 m/s 748 mmHg 73%
    14:00 +16°C° 0.3 mm 6 m/s 748 mmHg 72%
    15:00 +15°C° 0.3 mm 6 m/s 748 mmHg 72%
    16:00 +15°C° 0.2 mm 6 m/s 749 mmHg 73%
    17:00 +15°C° 0.2 mm 6 m/s 749 mmHg 74%
    18:00 +14°C° 0.2 mm 6 m/s 749 mmHg 75%
    19:00 +14°C° 0.1 mm 5 m/s 750 mmHg 77%
    20:00 +13°C° 0.1 mm 5 m/s 751 mmHg 79%
    21:00 +12°C° 0.1 mm 4 m/s 751 mmHg 81%
    22:00 +10°C° 0 mm 5 m/s 751 mmHg 83%
    23:00 +9°C° 0 mm 5 m/s 752 mmHg 86%

    29 Mai, Mercredi

    Heure Température Précipitation Vent Pression Humidité
    00:00 +9°C° 0 mm 5 m/s 752 mmHg 88%
    01:00 +9°C° 0.1 mm 5 m/s 752 mmHg 90%
    02:00 +8°C° 0.1 mm 5 m/s 752 mmHg 91%
    03:00 +8°C° 0.1 mm 5 m/s 752 mmHg 92%
    04:00 +8°C° 0.1 mm 5 m/s 753 mmHg 91%
    05:00 +9°C° 0.1 mm 5 m/s 753 mmHg 91%
    06:00 +9°C° 0.1 mm 5 m/s 753 mmHg 90%
    07:00 +10°C° 0.1 mm 5 m/s 753 mmHg 87%
    08:00 +12°C° 0.1 mm 5 m/s 753 mmHg 85%
    09:00 +13°C° 0.1 mm 5 m/s 754 mmHg 82%
    10:00 +14°C° 0.1 mm 6 m/s 754 mmHg 75%
    11:00 +16°C° 0.1 mm 6 m/s 754 mmHg 68%
    12:00 +17°C° 0.1 mm 6 m/s 754 mmHg 61%
    13:00 +19°C° 0.1 mm 6 m/s 753 mmHg 60%
    14:00 +19°C° 0.1 mm 6 m/s 753 mmHg 58%
    15:00 +20°C° 0.1 mm 6 m/s 753 mmHg 57%
    16:00 +19°C° 0.1 mm 5 m/s 754 mmHg 61%
    17:00 +19°C° 0.1 mm 4 m/s 754 mmHg 65%
    18:00 +18°C° 0.1 mm 3 m/s 754 mmHg 69%
    19:00 +17°C° 0 mm 3 m/s 755 mmHg 73%
    20:00 +14°C° 0 mm 3 m/s 756 mmHg 76%
    21:00 +13°C° 0 mm 3 m/s 756 mmHg 80%
    22:00 +12°C° 0 mm 4 m/s 756 mmHg 83%
    23:00 +12°C° 0 mm 4 m/s 756 mmHg 85%

    30 Mai, Jeudi

    Heure Température Précipitation Vent Pression Humidité
    00:00 +11°C° 0 mm 4 m/s 757 mmHg 88%
    01:00 +11°C° 0 mm 4 m/s 757 mmHg 89%
    02:00 +10°C° 0 mm 4 m/s 757 mmHg 91%
    03:00 +10°C° 0 mm 3 m/s 757 mmHg 92%
    04:00 +10°C° 0 mm 3 m/s 757 mmHg 91%
    05:00 +11°C° 0 mm 3 m/s 757 mmHg 90%
    06:00 +11°C° 0 mm 3 m/s 757 mmHg 89%
    07:00 +13°C° 0 mm 3 m/s 757 mmHg 82%
    08:00 +16°C° 0 mm 3 m/s 757 mmHg 75%
    09:00 +18°C° 0 mm 3 m/s 757 mmHg 68%
    10:00 +19°C° 0 mm 4 m/s 756 mmHg 64%
    11:00 +20°C° 0 mm 4 m/s 756 mmHg 59%
    12:00 +21°C° 0 mm 4 m/s 756 mmHg 55%
    13:00 +21°C° 0 mm 4 m/s 756 mmHg 55%
    14:00 +22°C° 0 mm 4 m/s 755 mmHg 56%
    15:00 +22°C° 0 mm 4 m/s 755 mmHg 56%
    16:00 +22°C° 0 mm 4 m/s 755 mmHg 60%
    17:00 +21°C° 0 mm 3 m/s 755 mmHg 63%
    18:00 +21°C° 0 mm 3 m/s 755 mmHg 67%
    19:00 +19°C° 0 mm 3 m/s 756 mmHg 70%
    20:00 +18°C° 0 mm 3 m/s 756 mmHg 74%
    21:00 +16°C° 0 mm 2 m/s 757 mmHg 77%
    22:00 +16°C° 0 mm 3 m/s 757 mmHg 79%
    23:00 +14°C° 0 mm 3 m/s 757 mmHg 81%
    Voir plus